Location: Bondula
(6.3703°N, 10.6756°W)
Time: 09:33:25
(UTC+00:00)

ARIANE 5 R/B - Pass Details

Date: 22 October 2019
Orbit: 224 x 32062 km, 2.5° (Epoch: 14 November)

Event Time Altitude Azimuth Distance (km) Brightness Sun altitude
Exits shadow 04:36:00 40° 196° (SSW) 1,315 4.0 -28.5°
Maximum altitude 04:37:07 46° 163° (SSE) 1,453 4.5 -28.2°
Drops below altitude 10° 04:56:52 10° 94° (E) 9,268 9.6 -23.3°
Sets 05:26:38 0° 90° (E) 17,893 11.7 -16.0°
